Yatton Keynell, United Kingdom

3:37 AM GMT on March 24, 2019 (GMT +0000)
Yatton Keynell

Weather History for 03740 - August, 2007

Change the Weather History Date:

Friday, August 17, 2007

  Actual Average Record
Temperature  
Mean Temperature 56 °F -  
Max Temperature 63 °F 66 °F - ()
Min Temperature 48 °F 51 °F - ()
Degree Days  
Heating Degree Days 10    
Growing Degree Days 6 (Base 50)    
Moisture  
Dew Point 50 °F    
Average Humidity 78    
Maximum Humidity 100    
Minimum Humidity 39    
Precipitation  
Precipitation 0.02 in 0.08 in - ()
Sea Level Pressure  
Sea Level Pressure 30.02 in    
Wind  
Wind Speed 8 mph ()    
Max Wind Speed 14 mph    
Max Gust Speed -    
Visibility 8.0 miles    
Events Rain    
T = Trace of Precipitation, MM = Missing Value Source: Averaged Metar Reports

Daily Weather History Graph

Daily Weather History Graph

Search for Another Location

Airport or City:

Astronomy

Aug. 17, 2007 Rise Set
Actual Time 5:55 AM BST 8:27 PM BST
Civil Twilight 5:18 AM BST 9:04 PM BST
Nautical Twilight 4:30 AM BST 9:51 PM BST
Astronomical Twilight 3:34 AM BST 10:47 PM BST
Moon 11:02 AM BST (8/17) 9:35 PM BST (8/17)
Length of Visible Light 15h 45m
Length of Day
14h 31m
Waxing Crescent, 19% of the Moon is Illuminated
Aug 17
Waxing Crescent
Aug 21
First Quarter
Aug 28
Full
Sep 4
Last Quarter
Sep 11
New

Hourly Weather History & Observations

Time (BST) Temp. Dew Point Humidity Pressure Visibility Wind Dir Wind Speed Gust Speed Precip Events Conditions
12:50 AM 51 °F 49 °F 89% 29.99 in 12 mi SW 8.1 mph - -   Partly Cloudy
12:50 AM 51.8 °F 48.2 °F 88% 29.98 in - SW 8.1 mph - N/A   Clear
1:50 AM 50.0 °F 48.2 °F 94% 29.98 in - SSW 8.1 mph - N/A   Clear
2:50 AM 50.0 °F 48.2 °F 94% 29.98 in - SW 9.2 mph - N/A   Clear
3:50 AM 49 °F 49 °F 98% 29.99 in 9 mi SW 10.4 mph - -   Scattered Clouds
3:50 AM 48.2 °F 48.2 °F 100% 29.98 in - SW 10.4 mph - N/A   Clear
4:50 AM 50.0 °F 48.2 °F 94% 29.98 in - SW 10.4 mph - N/A   Clear
5:50 AM 50.0 °F 50.0 °F 100% 29.98 in - SW 8.1 mph - N/A   Clear
6:50 AM 51 °F 50 °F 97% 30.01 in 12 mi SSW 8.1 mph - -   Mostly Cloudy
6:50 AM 51.8 °F 50.0 °F 94% 30.01 in - SSW 8.1 mph - N/A   Clear
7:50 AM 53.6 °F 51.8 °F 94% 30.01 in 6.2 mi SW 8.1 mph - N/A   Mostly Cloudy
8:50 AM 55.4 °F 51.8 °F 88% 30.01 in 6.2 mi SW 6.9 mph - N/A   Mostly Cloudy
9:50 AM 58 °F 51 °F 72% 30.04 in 12 mi SW 8.1 mph - -   Partly Cloudy
9:50 AM 57.2 °F 51.8 °F 82% 30.04 in 6.2 mi SW 8.1 mph - N/A   Mostly Cloudy
10:50 AM 59.0 °F 51.8 °F 77% 30.04 in 6.2 mi WSW 8.1 mph - N/A   Mostly Cloudy
11:50 AM 60.8 °F 46.4 °F 59% 30.04 in 6.2 mi West 12.7 mph - N/A   Mostly Cloudy
12:50 PM 63 °F 44 °F 39% 30.04 in 25 mi West 13.8 mph - -   Mostly Cloudy
12:50 PM 62.6 °F 44.6 °F 52% 30.04 in 6.2 mi West 13.8 mph - N/A   Mostly Cloudy
1:50 PM 62.6 °F 46.4 °F 55% 30.04 in 6.2 mi West 12.7 mph - N/A   Mostly Cloudy
2:50 PM 62.6 °F 50.0 °F 63% 30.04 in 6.2 mi WSW 13.8 mph - N/A   Mostly Cloudy
3:50 PM 62 °F 48 °F 49% 30.05 in 25 mi West 13.8 mph - -   Mostly Cloudy
3:50 PM 62.6 °F 48.2 °F 59% 30.04 in 6.2 mi West 13.8 mph - N/A   Mostly Cloudy
4:50 PM 62.6 °F 48.2 °F 59% 30.04 in 6.2 mi WSW 12.7 mph - N/A   Mostly Cloudy
5:50 PM 62.6 °F 48.2 °F 59% 30.04 in 6.2 mi West 11.5 mph - N/A   Mostly Cloudy
6:50 PM 61 °F 51 °F 61% 30.04 in 19 mi WSW 9.2 mph - -   Partly Cloudy
6:50 PM 60.8 °F 51.8 °F 72% 30.04 in 6.2 mi WSW 9.2 mph - N/A   Mostly Cloudy
7:50 PM 59.0 °F 51.8 °F 77% 30.04 in 6.2 mi SW 6.9 mph - N/A   Mostly Cloudy
8:50 PM 59.0 °F 53.6 °F 82% 30.01 in 6.2 mi SSW 4.6 mph - N/A   Overcast
9:50 PM 58 °F 54 °F 82% 30.03 in 12 mi South 5.8 mph - -   Overcast
9:50 PM 57.2 °F 53.6 °F 88% 30.01 in 6.2 mi South 5.8 mph - N/A   Overcast
10:50 PM 57.2 °F 53.6 °F 88% 30.01 in 6.2 mi South 6.9 mph - N/A Rain Light Rain
11:50 PM 57.2 °F 53.6 °F 88% 29.98 in - South 5.8 mph - N/A   Clear